Regional Weather Roundup
Issued by NWS

Home | Current Version | Previous Version | Graphics & Text | Print | Product List | Glossary On
Versions: 1 2 3 4 5 6 7 8 9 10 11 12 13 14 15 16 17 18 19 20 21 22 23 24 25 26 27 28 29 30 31 32 33 34 35 36 37 38 39 40 41 42 43 44 45 46 47 48 49 50
000
ASUS43 KBIS 222159
RWRND

NORTH DAKOTA REGIONAL WEATHER ROUNDUP
NATIONAL WEATHER SERVICE BISMARCK ND
500 PM CDT MON SEP 22 2014

NOTE: "FAIR" INDICATES FEW OR NO CLOUDS BELOW 12,000 FEET WITH NO
SIGNIFICANT WEATHER AND/OR OBSTRUCTIONS TO VISIBILITY.


NDZ001>003-009>011-017-222300-
NORTHWEST NORTH DAKOTA

CITY           SKY/WX    TMP DP  RH WIND       PRES   REMARKS
WILLISTON      SUNNY     83  48  29 SE15      29.88F
MINOT          SUNNY     81  45  28 SE16G23   29.93F
$$

NDZ018>021-031>035-040>046-222300-
SOUTHWEST NORTH DAKOTA

CITY           SKY/WX    TMP DP  RH WIND       PRES   REMARKS
BISMARCK       SUNNY     83  48  29 SE15      29.96F
GARRISON         N/A     80  50  34 S12G17    29.94F
HETTINGER ARPT MOSUNNY   75  47  36 SE16G24   29.94F
$$

NDZ004>008-012>016-024-026-027-054-222300-
NORTHEAST NORTH DAKOTA

CITY           SKY/WX    TMP DP  RH WIND       PRES   REMARKS
GRAND FORKS    SUNNY     77  47  34 S10       30.02F
DEVILS LAKE    SUNNY     79  43  27 S14       29.99F
$$

NDZ022-023-025-028>030-036>039-047>053-222300-
SOUTHEAST NORTH DAKOTA

CITY           SKY/WX    TMP DP  RH WIND       PRES   REMARKS
FARGO          SUNNY     77  47  34 S12       30.06F
$$




USA.gov is the U.S. government's official web portal to all federal, state and local government web resources and services.